Weather reports worldwide

Advertisment
Riga, Latvia (26422): temperature & dewpoint: 27.05.2020 23:00:00 - 02.06.2020 23:00:00 (EEST)Riga, Latvia (26422): wind speed & gusts: 27.05.2020 23:00:00 - 02.06.2020 23:00:00 (EEST)Riga, Latvia (26422): wind direction: 27.05.2020 23:00:00 - 02.06.2020 23:00:00 (EEST)Riga, Latvia (26422): reduced air pressure: 27.05.2020 23:00:00 - 02.06.2020 23:00:00 (EEST)Riga, Latvia (26422): visibility: 27.05.2020 23:00:00 - 02.06.2020 23:00:00 (EEST)Riga, Latvia (26422): sunshine duration: 27.05.2020 23:00:00 - 02.06.2020 23:00:00 (EEST)Riga, Latvia (26422): precipitation: 27.05.2020 23:00:00 - 02.06.2020 23:00:00 (EEST)
Date & Time tt [°C] td [°C] ff [km/h] ff [kn] fx [km/h] fx [kn] dd ppp [hPa] vv [km] sd [min] rr [mm]
02.06.2020 23:00:00 - - - - - - - - - - -
02.06.2020 22:00:00 16,1 1,4 11 6 32 18 E 1012,9 20 - -
02.06.2020 21:00:00 17,0 1,4 15 8 31 17 E 1012,6 20 0 0,0
02.06.2020 20:00:00 17,1 3,4 18 10 32 18 E 1012,7 20 - -
02.06.2020 19:00:00 16,8 5,4 22 12 40 21 N 1013,2 20 - -
02.06.2020 18:00:00 16,3 4,9 20 11 38 21 N 1013,7 20 0 0,0
02.06.2020 17:00:00 16,5 4,8 32 18 40 21 N 1014,4 20 - -
02.06.2020 16:00:00 15,9 4,3 29 16 43 23 N 1015,1 20 - -
02.06.2020 15:00:00 15,7 4,6 24 13 43 23 N 1015,8 20 0 0,0
02.06.2020 14:00:00 16,8 5,1 32 18 43 23 N 1016,0 18 - -
02.06.2020 13:00:00 16,0 5,6 11 6 40 21 N 1016,6 20 - -
02.06.2020 12:00:00 15,1 5,5 18 10 31 17 N 1017,2 20 0 0,0
02.06.2020 11:00:00 15,7 5,9 7 4 29 16 N 1018,0 20 - -
02.06.2020 10:00:00 15,5 4,5 32 18 19 10 N 1018,3 20 - -
02.06.2020 09:00:00 13,5 3,5 13 7 19 10 NE 1018,7 20 0 0,0
02.06.2020 08:00:00 11,1 3,4 4 2 22 12 NE 1018,8 20 - -
02.06.2020 07:00:00 9,5 2,8 29 16 22 12 NE 1019,2 20 - -
02.06.2020 06:00:00 8,4 2,8 9 5 21 11 NE 1019,3 20 0 0,0
02.06.2020 05:00:00 8,1 2,5 22 12 22 12 NE 1019,6 20 - -
02.06.2020 04:00:00 8,6 2,8 11 6 22 12 NE 1019,9 20 - -
02.06.2020 03:00:00 9,3 2,8 12 7 19 11 NE 1020,2 20 0 0,0
02.06.2020 02:00:00 10,2 3,0 25 14 25 14 NE 1020,6 20 - -
02.06.2020 01:00:00 11,1 2,4 11 6 26 14 E 1020,7 20 - -
02.06.2020 00:00:00 12,2 2,0 15 8 27 14 E 1020,7 20 0 0,0
01.06.2020 23:00:00 13,0 1,6 14 8 40 21 E 1020,6 20 - -
01.06.2020 22:00:00 14,1 2,3 4 2 40 21 NE 1020,0 20 - -
01.06.2020 21:00:00 15,5 3,2 22 12 41 22 ENE 1019,5 20 0 0,0
01.06.2020 20:00:00 16,9 4,9 25 14 43 23 NE 1019,0 20 - -
01.06.2020 19:00:00 17,5 6,7 22 12 43 23 N 1019,2 20 - -
01.06.2020 18:00:00 16,5 7,4 20 11 45 24 NNE 1019,8 20 0 0,0
01.06.2020 17:00:00 16,5 5,1 4 2 43 23 N 1020,4 20 - -
01.06.2020 16:00:00 16,3 5,6 32 18 43 23 N 1020,8 20 - -
01.06.2020 15:00:00 16,8 5,6 26 14 40 21 N 1021,3 20 0 0,0
01.06.2020 14:00:00 15,6 3,7 4 2 40 21 N 1021,9 19 - -
01.06.2020 13:00:00 15,3 3,4 18 10 32 18 N 1022,6 20 - -
01.06.2020 12:00:00 14,9 2,4 17 9 31 17 N 1023,2 19 0 0,0
01.06.2020 11:00:00 15,0 1,5 18 10 32 18 N 1023,4 20 - -
01.06.2020 10:00:00 15,1 1,9 14 8 25 14 N 1023,6 20 - -
01.06.2020 09:00:00 14,9 -0,5 10 5 23 12 ENE 1023,9 20 0 0,0
01.06.2020 08:00:00 13,3 -1,1 22 12 25 14 NE 1023,9 11 - -
01.06.2020 07:00:00 12,1 -0,4 22 12 22 12 E 1023,9 20 - -
01.06.2020 06:00:00 10,9 1,4 11 6 21 11 E 1024,0 20 0 0,0
01.06.2020 05:00:00 10,5 3,1 32 18 22 12 NE 1023,8 20 - -
01.06.2020 04:00:00 10,4 3,4 14 8 18 10 NE 1023,8 20 - -
01.06.2020 03:00:00 11,4 2,6 9 5 19 10 NE 1023,7 20 0 0,0
01.06.2020 02:00:00 12,5 2,4 14 8 25 14 NE 1023,6 20 - -
01.06.2020 01:00:00 13,6 1,9 4 2 29 16 NE 1023,9 20 - -
01.06.2020 00:00:00 14,4 1,6 14 8 28 15 NE 1023,6 20 0 0,0
31.05.2020 23:00:00 15,3 1,1 7 4 43 23 NE 1023,2 20 - -
31.05.2020 22:00:00 16,3 0,8 7 4 54 29 NE 1022,8 20 - -
31.05.2020 21:00:00 17,2 0,7 21 11 53 29 NE 1022,2 20 0 0,0
31.05.2020 20:00:00 17,9 -0,9 29 16 50 27 NE 1021,8 20 - -
31.05.2020 19:00:00 19,1 0,2 32 18 47 25 NE 1021,2 20 - -
31.05.2020 18:00:00 18,9 3,0 16 9 47 26 NNE 1021,1 20 0 0,0
31.05.2020 17:00:00 20,2 0,6 7 4 50 27 NE 1021,1 20 - -
31.05.2020 16:00:00 19,4 3,1 32 18 54 29 N 1021,2 20 - -
31.05.2020 15:00:00 20,5 0,2 23 12 53 28 ENE 1021,2 20 0 0,0
31.05.2020 14:00:00 19,7 0,7 32 18 47 25 NE 1021,6 20 - -
31.05.2020 13:00:00 19,3 1,7 22 12 50 27 NE 1021,9 20 - -
31.05.2020 12:00:00 19,1 3,2 23 12 50 27 ENE 1021,8 20 0 0,1
31.05.2020 11:00:00 18,1 4,3 32 18 54 29 NE 1021,6 20 - -
31.05.2020 10:00:00 17,3 3,6 4 2 54 29 NE 1021,6 20 - -
31.05.2020 09:00:00 16,6 2,5 23 13 50 27 ENE 1021,2 20 0 0,0
31.05.2020 08:00:00 15,1 3,6 29 16 47 25 NE 1021,0 20 - -
31.05.2020 07:00:00 13,8 3,6 7 4 43 23 NE 1021,0 20 - -
31.05.2020 06:00:00 13,2 3,8 18 10 38 21 NE 1020,8 20 0 0,0
31.05.2020 05:00:00 13,0 3,6 25 14 36 19 NE 1020,4 20 - -
31.05.2020 04:00:00 13,1 4,0 18 10 32 18 NE 1020,2 20 - -
31.05.2020 03:00:00 13,0 4,3 16 8 31 17 NNE 1020,1 20 0 0,0
31.05.2020 02:00:00 13,5 4,9 14 8 36 19 NE 1019,9 20 - -
31.05.2020 01:00:00 14,2 5,3 25 14 36 19 NE 1019,8 20 - -
31.05.2020 00:00:00 14,9 4,8 19 10 35 19 NNE 1019,6 20 0 0,0
30.05.2020 23:00:00 16,0 5,0 11 6 47 25 NE 1019,2 18 - -
30.05.2020 22:00:00 17,1 4,7 11 6 50 27 NE 1019,0 20 - -
30.05.2020 21:00:00 18,1 4,2 21 12 50 27 NE 1018,6 20 0 0,0
30.05.2020 20:00:00 19,2 3,8 4 2 54 29 NE 1018,3 20 - -
30.05.2020 19:00:00 19,8 3,5 29 16 54 29 NE 1018,0 16 - -
30.05.2020 18:00:00 19,0 6,1 19 10 44 24 NNE 1018,3 20 0 0,0
30.05.2020 17:00:00 18,5 7,3 18 10 43 23 N 1018,4 20 - -
30.05.2020 16:00:00 18,2 7,6 14 8 47 25 N 1019,1 20 - -
30.05.2020 15:00:00 18,0 6,7 23 12 45 25 NNE 1019,8 20 0 0,0
30.05.2020 14:00:00 17,7 7,1 32 18 43 23 N 1020,2 20 - -
30.05.2020 13:00:00 17,0 7,1 22 12 43 23 N 1021,0 20 - -
30.05.2020 12:00:00 16,3 6,1 19 10 35 19 N 1021,3 20 0 0,0
30.05.2020 11:00:00 16,1 6,5 4 2 29 16 N 1021,6 20 - -
30.05.2020 10:00:00 15,3 6,8 18 10 22 12 N 1022,0 20 - -
30.05.2020 09:00:00 14,4 6,2 13 7 21 11 N 1022,6 20 0 0,0
30.05.2020 08:00:00 12,7 5,6 32 18 22 12 N 1022,8 20 - -
30.05.2020 07:00:00 11,4 4,6 4 2 25 14 NE 1022,8 20 - -
30.05.2020 06:00:00 9,6 4,1 5 3 27 14 NNE 1023,1 20 0 0,0
30.05.2020 05:00:00 9,4 4,2 29 16 25 14 NE 1022,8 20 - -
30.05.2020 04:00:00 9,5 4,7 22 12 22 12 NE 1022,8 20 - -
30.05.2020 03:00:00 9,7 5,8 12 7 21 11 NNE 1023,0 20 0 0,0
30.05.2020 02:00:00 10,4 6,5 11 6 32 18 N 1023,2 20 - -
30.05.2020 01:00:00 11,4 7,1 32 18 32 18 NE 1022,8 20 - -
30.05.2020 00:00:00 11,7 7,7 15 8 31 17 NNE 1023,0 20 0 0,0
29.05.2020 23:00:00 11,5 7,6 32 18 36 19 N 1023,2 20 - -
29.05.2020 22:00:00 11,9 7,2 11 6 40 21 N 1023,5 20 - -
29.05.2020 21:00:00 12,8 6,5 21 11 40 22 N 1023,1 20 0 0,0
29.05.2020 20:00:00 13,7 5,6 22 12 47 25 N 1023,1 20 - -
29.05.2020 19:00:00 14,1 4,7 25 14 54 29 N 1023,0 18 - -
29.05.2020 18:00:00 14,4 4,6 23 13 53 29 N 1023,2 20 0 0,0
29.05.2020 17:00:00 14,6 4,6 7 4 54 29 N 1023,5 20 - -
29.05.2020 16:00:00 15,0 3,8 7 4 50 27 N 1023,8 20 - -
29.05.2020 15:00:00 15,5 6,4 29 15 50 27 N 1024,3 20 0 0,0
29.05.2020 14:00:00 15,2 7,0 32 18 47 25 N 1024,6 20 - -
29.05.2020 13:00:00 14,7 7,0 4 2 40 21 N 1024,8 20 - -
29.05.2020 12:00:00 13,9 7,1 22 12 37 20 N 1025,1 17 0 0,0
29.05.2020 11:00:00 13,3 7,1 7 4 36 19 N 1025,1 20 - -
29.05.2020 10:00:00 13,5 7,0 32 18 32 18 N 1025,0 20 - -
29.05.2020 09:00:00 12,6 6,6 19 10 30 16 N 1025,1 20 0 0,0
29.05.2020 08:00:00 11,7 6,8 18 10 32 18 N 1025,1 20 - -
29.05.2020 07:00:00 10,9 7,2 22 12 29 16 N 1025,0 17 - -
29.05.2020 06:00:00 9,4 7,6 12 7 23 13 N 1025,0 20 0 0,0
29.05.2020 05:00:00 9,0 7,1 25 14 25 14 N 1025,1 20 - -
29.05.2020 04:00:00 9,1 6,9 14 8 25 14 N 1025,2 14 - -
29.05.2020 03:00:00 9,5 6,7 14 8 23 12 N 1025,6 14 0 0,0
29.05.2020 02:00:00 9,6 6,7 14 8 29 16 N 1025,8 20 - -
29.05.2020 01:00:00 9,9 6,4 29 16 29 16 N 1026,0 20 - -
29.05.2020 00:00:00 10,3 6,2 14 8 27 15 NNW 1026,3 20 0 0,0
28.05.2020 23:00:00 10,7 6,1 11 6 40 21 N 1026,3 20 - -
28.05.2020 22:00:00 11,4 6,3 14 8 47 25 N 1026,0 20 - -
28.05.2020 21:00:00 12,3 7,1 20 11 45 24 N 1025,7 15 0 0,0
28.05.2020 20:00:00 13,4 6,3 22 12 54 29 N 1025,4 20 - -
28.05.2020 19:00:00 14,5 6,8 7 4 54 29 N 1025,2 20 - -
28.05.2020 18:00:00 15,6 5,4 25 14 45 25 N 1025,2 20 0 0,0
28.05.2020 17:00:00 15,7 5,9 14 8 40 21 N 1025,2 20 - -
28.05.2020 16:00:00 15,4 6,1 11 6 43 23 N 1025,2 20 - -
28.05.2020 15:00:00 14,9 6,9 21 11 43 23 N 1025,5 20 0 0,0
28.05.2020 14:00:00 14,9 8,4 18 10 40 21 N 1025,5 19 - -
28.05.2020 13:00:00 14,0 8,8 29 16 40 21 N 1025,4 19 - -
28.05.2020 12:00:00 13,0 8,6 22 12 32 18 N 1025,2 16 - 0,0
28.05.2020 11:00:00 13,8 8,2 11 6 29 16 N 1024,7 18 - -
28.05.2020 10:00:00 12,7 8,4 18 10 29 16 N 1024,6 20 - -
28.05.2020 09:00:00 12,1 9,1 16 9 29 16 N 1024,5 20 0 0,0
28.05.2020 08:00:00 12,4 10,1 14 8 29 16 N 1024,0 11 - -
28.05.2020 07:00:00 12,5 10,0 4 2 22 12 N 1023,6 20 - -
28.05.2020 06:00:00 12,1 8,7 6 4 16 9 WNW 1023,1 20 0 0,0
28.05.2020 05:00:00 12,2 8,5 18 10 14 8 NW 1023,2 20 - -
28.05.2020 04:00:00 12,3 8,2 18 10 14 8 W 1023,1 20 - -
28.05.2020 03:00:00 12,0 7,6 6 4 12 6 WSW 1023,4 20 0 0,0
28.05.2020 02:00:00 12,3 8,0 14 8 14 8 SW 1023,6 20 - -
28.05.2020 01:00:00 12,6 7,9 7 4 14 8 SW 1023,9 18 - -
28.05.2020 00:00:00 12,3 7,9 4 2 5 3 S 1024,1 20 0 0,0
27.05.2020 23:00:00 12,9 7,6 18 10 22 12 NW 1024,4 20 - -

tt = temperature
td = dewpoint
ff = wind speed
fx = gusts
dd = wind direction
ppp = reduced air pressure
vv = visibility
sd = sunshine duration
rr = precipitation

Next stations